NOAA 16 DEB, 41655

Orbit data source: Space-Track

NOAA 16 DEB, 41655 is space debris in SSO originally from a launch on Thu, 21 Sep 2000 UTC launched from the Air Force Western Test Range (AFWTR). Debris objects in space refer to the collection of defunct objects orbiting the Earth. Examples of debris include non-operational satellites, rocket bodies, and fragments generated from explosions, collisions, or faulty payload assembly.

Loading next visibility...
Identifier
41655, 2000-055NU
Orbit
SSO
Country
Flag of USUS
Related business
Manufacturer
Unknown
Mission
Spacecraft
Bus & Motor
Unknown
Mass
Unknown
Launch date (UTC)
2000-09-21 (26 years ago)
Launch vehicle
Unknown
Launch site
Air Force Western Test Range (AFWTR)
Object type
Payload
Rocket body
Debris
Shape & HBR
Unknown shape, 0.1 m
Radar Cross Section
Medium (>0.1 m² and <1 m²)

Expand to show TLE details & history
Last TLE update: 17 hours ago

TLE from 17 hours ago
0 NOAA 16 DEB
1 41655U 00055NU  26255.52046644  .00003161  00000-0  10471-2 0  9998
2 41655  98.7258   1.1192 0016645 229.1483 130.8261 14.38520614539908
Epoch: 2026-09-12T12:29Z
TLE epoch observation values (Epoch: 2026-09-12T12:29:28.300Z)
Latitude
-0.00007°
Longitude
-177.77699°
Altitude
774.114 km
Speed
7.463 km/s
True Right ascension
00h 04m 28s
True Declination
0° 00' 00"
Sunlit
Object was in full shadow at epoch
Visualization orbit readout
Latitude
Unknown
Longitude
Unknown
Altitude
Unknown
Speed
Unknown
Apparent Right ascension
Unknown
Apparent Declination
Unknown
Sunlit
N/A
Visualization observer readout
Local Sidereal Time
21:52:56
Azimuth
Unknown
Elevation
Unknown
Doppler factor
Unknown
Orbital elements
Apogee altitude
772.407 km
Perigee altitude
748.643 km
Semi-major axis
7,138.662 km
Eccentricity
0.00166
Inclination
98.7258°
RAAN
1.1192°
Arg. of periapsis
229.1483°
True anomaly
130.97023°
Mean anomaly
130.8261°
Eccentric anomaly
130.89819°
Mean motion
3.59847 °/min
Orbital period
100.04 mins
BSTAR
0.0010471
Loading maneuver chart data...
Computing Atmospheric mass density...
Loading historical data...
Loading historical data...
Loading historical data...
Loading historical data...
Loading historical data...
Loading historical data...
Loading historical data...

Documentation

Showing up to 5 results
|